Find KUIPER-00375

NORAD ID: 68868 Int'l Des: 2026-095E Owner: KUIP Country: US Constellation: amazon-leo operational
LEOCIRCULAR

Current View

Loading 3D Globe...

About KUIPER-00375

KUIPER-00375 (NORAD 68868) is a amazon-leo constellation satellite launched Apr 28, 2026 by KUIP of US. It operates in LEO, CIRCULAR orbit with a mass of 490.00 kg.

About KUIPER-00375

Description loading...

Upcoming Passes

Passes for default location (London). Set your location on the main map for personalized predictions.

Altitude History

Loading altitude history...

Two-Line Element Set

1 68868U 26095E 26168.91668981 -.00007396 00000-0 -24915-3 0 9990
2 68868 51.8869 238.8283 0002903 332.7201 334.4741 15.28674149 5638
Epoch: Jun 17, 2026 • Age: 10 hours

Current Status

Altitude 484.6 km
Velocity 7.63 km/s
Sub-Earth Point 46.03°N, 94.73°W
Launch Date Apr 28, 2026
Age 0.1 years
Type internet

Technical Details

Classification Payload
Mass 490.00 kg
Dry Mass 490.00 kg
Total Mass 490.00 kg
Length 1.80 m
Diameter 0.70 m
Span 5.00 m
Shape Box + 2 pan
Manufacturer KUIP
Bus Type Kuiper
Phase Status In Orbit
Owner/State KUIP/US

Most Searched